When you browse on this site, cookies collect data to enhance your experience and personalize the content and advertising you see.
Visit our Privacy Policy to learn more. By continuing to use the site, you agree to this use of cookies and data.
  • In Czech Republic
  • List of Countries
  • For 7 days
  • Water Temperature
  • Satellite Maps
  • Weather Map
  • Weather Widgets
  • user-avatar
    Login

    Hourly Weather Winnipeg

    Today, 26 April, Friday

    Time Temperature Precipitation Wind Pressure Humidity
    00:00 +4°C° 0 mm 3 mps 742 mmHg 64%
    01:00 +4°C° 0 mm 2 mps 742 mmHg 66%
    02:00 +4°C° 0 mm 2 mps 742 mmHg 67%
    03:00 +3°C° 0 mm 2 mps 742 mmHg 69%
    04:00 +3°C° 0 mm 2 mps 742 mmHg 68%
    05:00 +4°C° 0 mm 1 mps 742 mmHg 67%
    06:00 +4°C° 0 mm 1 mps 743 mmHg 66%
    07:00 +6°C° 0 mm 1 mps 743 mmHg 60%
    08:00 +7°C° 0 mm 1 mps 743 mmHg 54%
    09:00 +8°C° 0 mm 2 mps 743 mmHg 48%
    10:00 +9°C° 0 mm 3 mps 743 mmHg 41%
    11:00 +11°C° 0 mm 4 mps 742 mmHg 34%
    12:00 +12°C° 0 mm 5 mps 742 mmHg 27%
    13:00 +12°C° 0 mm 5 mps 742 mmHg 26%
    14:00 +11°C° 0 mm 6 mps 741 mmHg 24%
    15:00 +13°C° 0 mm 6 mps 741 mmHg 23%
    16:00 +11°C° 0 mm 6 mps 741 mmHg 23%
    17:00 +12°C° 0 mm 5 mps 741 mmHg 23%
    18:00 +10°C° 0 mm 5 mps 740 mmHg 24%
    19:00 +10°C° 0 mm 4 mps 740 mmHg 28%
    20:00 +9°C° 0 mm 3 mps 741 mmHg 33%
    21:00 +7°C° 0 mm 2 mps 741 mmHg 37%
    22:00 +7°C° 0 mm 2 mps 741 mmHg 40%
    23:00 +6°C° 0 mm 2 mps 741 mmHg 43%

    Tomorrow, 27 April, Saturday

    Time Temperature Precipitation Wind Pressure Humidity
    00:00 +6°C° 0 mm 2 mps 741 mmHg 46%
    01:00 +5°C° 0 mm 2 mps 741 mmHg 46%
    02:00 +5°C° 0 mm 2 mps 741 mmHg 46%
    03:00 +3°C° 0 mm 3 mps 740 mmHg 46%
    04:00 +3°C° 0 mm 3 mps 741 mmHg 47%
    05:00 +2°C° 0 mm 3 mps 741 mmHg 47%
    06:00 +2°C° 0 mm 3 mps 742 mmHg 47%
    07:00 +3°C° 0 mm 3 mps 742 mmHg 47%
    08:00 +4°C° 0 mm 4 mps 742 mmHg 46%
    09:00 +5°C° 0 mm 5 mps 743 mmHg 45%
    10:00 +6°C° 0 mm 5 mps 743 mmHg 39%
    11:00 +7°C° 0 mm 5 mps 743 mmHg 34%
    12:00 +8°C° 0 mm 5 mps 743 mmHg 28%
    13:00 +8°C° 0 mm 5 mps 742 mmHg 26%
    14:00 +10°C° 0 mm 4 mps 742 mmHg 24%
    15:00 +10°C° 0 mm 4 mps 742 mmHg 22%
    16:00 +10°C° 0 mm 4 mps 742 mmHg 22%
    17:00 +10°C° 0 mm 4 mps 742 mmHg 22%
    18:00 +8°C° 0 mm 4 mps 742 mmHg 23%
    19:00 +7°C° 0 mm 4 mps 742 mmHg 26%
    20:00 +7°C° 0 mm 3 mps 742 mmHg 30%
    21:00 +6°C° 0 mm 2 mps 742 mmHg 33%
    22:00 +5°C° 0 mm 2 mps 742 mmHg 35%
    23:00 +4°C° 0 mm 2 mps 742 mmHg 37%

    Day after tomorrow, 28 April, Sunday

    Time Temperature Precipitation Wind Pressure Humidity
    00:00 +3°C° 0 mm 2 mps 742 mmHg 40%
    01:00 +3°C° 0 mm 2 mps 742 mmHg 41%
    02:00 +3°C° 0 mm 2 mps 742 mmHg 42%
    03:00 +2°C° 0 mm 2 mps 742 mmHg 44%
    04:00 +2°C° 0 mm 2 mps 742 mmHg 45%
    05:00 +2°C° 0 mm 2 mps 742 mmHg 46%
    06:00 +2°C° 0 mm 2 mps 742 mmHg 47%
    07:00 +3°C° 0 mm 2 mps 742 mmHg 46%
    08:00 +3°C° 0 mm 3 mps 742 mmHg 44%
    09:00 +4°C° 0 mm 3 mps 742 mmHg 42%
    10:00 +6°C° 0 mm 4 mps 742 mmHg 37%
    11:00 +7°C° 0 mm 4 mps 742 mmHg 32%
    12:00 +10°C° 0 mm 4 mps 742 mmHg 27%
    13:00 +10°C° 0 mm 4 mps 742 mmHg 26%
    14:00 +9°C° 0 mm 5 mps 742 mmHg 25%
    15:00 +9°C° 0 mm 5 mps 741 mmHg 23%
    16:00 +9°C° 0 mm 5 mps 741 mmHg 25%
    17:00 +9°C° 0 mm 5 mps 741 mmHg 27%
    18:00 +8°C° 0 mm 4 mps 741 mmHg 29%
    19:00 +7°C° 0 mm 4 mps 742 mmHg 33%
    20:00 +6°C° 0 mm 5 mps 742 mmHg 37%
    21:00 +6°C° 0 mm 5 mps 743 mmHg 41%
    22:00 +5°C° 0 mm 5 mps 743 mmHg 40%
    23:00 +5°C° 0 mm 5 mps 743 mmHg 39%

    29 April, Monday

    Time Temperature Precipitation Wind Pressure Humidity
    00:00 +3°C° 0 mm 5 mps 743 mmHg 39%
    01:00 +3°C° 0 mm 5 mps 743 mmHg 39%
    02:00 +2°C° 0 mm 5 mps 742 mmHg 39%
    03:00 +2°C° 0 mm 5 mps 742 mmHg 39%
    04:00 +2°C° 0 mm 5 mps 743 mmHg 41%
    05:00 +1°C° 0 mm 5 mps 743 mmHg 42%
    06:00 +1°C° 0 mm 6 mps 743 mmHg 44%
    07:00 +1°C° 0 mm 6 mps 744 mmHg 43%
    08:00 +2°C° 0 mm 6 mps 744 mmHg 43%
    09:00 +3°C° 0 mm 6 mps 744 mmHg 42%
    10:00 +4°C° 0 mm 6 mps 745 mmHg 38%
    11:00 +5°C° 0 mm 7 mps 745 mmHg 34%
    12:00 +8°C° 0 mm 7 mps 745 mmHg 30%
    13:00 +8°C° 0 mm 6 mps 745 mmHg 28%
    14:00 +9°C° 0 mm 6 mps 745 mmHg 26%
    15:00 +9°C° 0 mm 6 mps 745 mmHg 25%
    16:00 +8°C° 0 mm 5 mps 745 mmHg 25%
    17:00 +8°C° 0 mm 5 mps 745 mmHg 25%
    18:00 +8°C° 0 mm 5 mps 745 mmHg 25%
    19:00 +6°C° 0 mm 4 mps 746 mmHg 28%
    20:00 +5°C° 0 mm 4 mps 746 mmHg 32%
    21:00 +4°C° 0 mm 3 mps 747 mmHg 35%
    22:00 +3°C° 0 mm 3 mps 747 mmHg 38%
    23:00 +3°C° 0 mm 2 mps 747 mmHg 40%

    30 April, Tuesday

    Time Temperature Precipitation Wind Pressure Humidity
    00:00 +2°C° 0 mm 2 mps 747 mmHg 43%
    01:00 +2°C° 0 mm 2 mps 747 mmHg 42%
    02:00 +2°C° 0 mm 1 mps 747 mmHg 41%
    03:00 +2°C° 0 mm 1 mps 747 mmHg 41%
    04:00 +2°C° 0 mm 1 mps 748 mmHg 39%
    05:00 +2°C° 0 mm 1 mps 748 mmHg 38%
    06:00 +2°C° 0 mm 1 mps 748 mmHg 37%
    07:00 +4°C° 0 mm 1 mps 748 mmHg 32%
    08:00 +6°C° 0 mm 1 mps 749 mmHg 28%
    09:00 +8°C° 0 mm 1 mps 749 mmHg 24%
    10:00 +9°C° 0 mm 1 mps 749 mmHg 23%
    11:00 +10°C° 0 mm 1 mps 749 mmHg 21%
    12:00 +11°C° 0 mm 1 mps 748 mmHg 20%
    13:00 +12°C° 0 mm 1 mps 748 mmHg 19%
    14:00 +12°C° 0 mm 1 mps 748 mmHg 18%
    15:00 +13°C° 0 mm 1 mps 747 mmHg 17%
    16:00 +13°C° 0 mm 1 mps 747 mmHg 17%
    17:00 +13°C° 0 mm 1 mps 747 mmHg 17%
    18:00 +12°C° 0 mm 1 mps 747 mmHg 17%
    19:00 +10°C° 0 mm 2 mps 747 mmHg 19%
    20:00 +9°C° 0 mm 2 mps 747 mmHg 22%
    21:00 +8°C° 0 mm 2 mps 747 mmHg 24%
    22:00 +7°C° 0 mm 2 mps 747 mmHg 25%
    23:00 +6°C° 0 mm 2 mps 747 mmHg 27%

    1 May, Wednesday

    Time Temperature Precipitation Wind Pressure Humidity
    00:00 +5°C° 0 mm 3 mps 747 mmHg 28%
    01:00 +4°C° 0 mm 3 mps 747 mmHg 30%
    02:00 +5°C° 0 mm 2 mps 747 mmHg 33%
    03:00 +4°C° 0 mm 2 mps 747 mmHg 36%
    04:00 +4°C° 0 mm 2 mps 748 mmHg 38%
    05:00 +4°C° 0 mm 2 mps 748 mmHg 41%
    06:00 +4°C° 0 mm 2 mps 748 mmHg 43%
    07:00 +6°C° 0 mm 2 mps 748 mmHg 45%
    08:00 +7°C° 0 mm 3 mps 748 mmHg 47%
    09:00 +8°C° 0 mm 3 mps 748 mmHg 48%
    10:00 +10°C° 0 mm 4 mps 748 mmHg 45%
    11:00 +11°C° 0 mm 4 mps 748 mmHg 41%
    12:00 +12°C° 0 mm 4 mps 748 mmHg 38%
    13:00 +12°C° 0 mm 4 mps 748 mmHg 36%
    14:00 +13°C° 0 mm 4 mps 747 mmHg 35%
    15:00 +13°C° 0 mm 5 mps 747 mmHg 34%
    16:00 +13°C° 0 mm 4 mps 747 mmHg 34%
    17:00 +12°C° 0 mm 4 mps 747 mmHg 35%
    18:00 +12°C° 0 mm 4 mps 747 mmHg 36%
    19:00 +11°C° 0 mm 4 mps 747 mmHg 41%
    20:00 +10°C° 0 mm 3 mps 747 mmHg 47%
    21:00 +9°C° 0 mm 3 mps 747 mmHg 52%
    22:00 +9°C° 0.3 mm 3 mps 746 mmHg 58%
    23:00 +8°C° 0.3 mm 4 mps 746 mmHg 63%
    Show more